Regional Weather Roundup
Issued by NWS

Home | Current Version | Previous Version | Graphics & Text | Print | Product List | Glossary On
Versions: 1 2 3 4 5 6 7 8 9 10 11 12 13 14
000
ASUS45 KTFX 151210
RWRMT
MONTANA REGIONAL WEATHER ROUNDUP
NATIONAL WEATHER SERVICE GREAT FALLS MT
500 AM MST SUN JAN 15 2017

NOTE: "FAIR" INDICATES FEW OR NO CLOUDS BELOW 12000 FEET WITH NO
SIGNIFICANT WEATHER AND/OR OBSTRUCTIONS TO VISIBILITY.

MTZ001>007-043-151300-
WEST OF THE DIVIDE

CITY           SKY/WX    TMP DP  RH WIND       PRES   REMARKS
KALISPELL      CLOUDY    14  11  87 CALM      30.35S
MISSOULA       PTCLDY    -5  -8  87 CALM      30.39F FOG
BUTTE          CLOUDY    -8 -14  74 SE5       30.20F
MULLAN PASS    PTCLDY    23   1  38 W6        30.14F WCI  16
ANACONDA         N/A      1  -6  71 SW3       30.21F
DEER LODGE       N/A     -6  -9  84 CALM      30.27F
HAMILTON         N/A     -6  -9  84 CALM      30.33R
RONAN            N/A      1  -5  76 MISG      30.36S VSB 0
$$

MTZ008-052>055-151300-
SOUTHWEST MONTANA

CITY           SKY/WX    TMP DP  RH WIND       PRES   REMARKS
BOZEMAN        CLOUDY   -10 -14  82 SE7       30.24S WCI -25
DILLON         CLOUDY     7  -8  50 S10       30.20F WCI  -8
W YELLOWSTONE  HAZE     -24 -29  76 SW3       30.23F VSB 1/2
ENNIS          CLEAR      5  -6  61 CALM      30.23S
TWIN BRIDGES     N/A     -1 -13  56 SE3       30.16F
$$

MTZ009-010-012-014-046-048-049-054-151300-
EAST SLOPES AND CENTRAL MONTANA

CITY           SKY/WX    TMP DP  RH WIND       PRES   REMARKS
CUT BANK       PTCLDY    31  11  43 W30       29.97S WCI  16
GREAT FALLS    CLOUDY    27  10  49 SW23      30.05F WCI  12
MALMSTROM AFB  CLOUDY    27  13  55 SW18      30.06F WCI  14
HELENA         CLOUDY    -5  -9  83 CALM      30.26F
AUGUSTA          N/A     23   8  51 S6        30.04S WCI  16
BOWMANS CRNR     N/A     18   5  58 S25       30.05F WCI   0
CHOTEAU          N/A     34  12  40 SW10G21   30.03F WCI  26
CONRAD           N/A     10   2  70 S2        30.02F
FAIRFIELD        N/A     21   9  59 S22       30.03F WCI   5
POWER            N/A     19   8  62 SW14      30.04S WCI   5
RAYNESFORD       N/A     32  10  39 W9G17     30.06R WCI  24
ULM              N/A     20   7  58 MISG      30.08F
$$

MTZ011-013-016-021-045-047-050-051-151300-
NORTH CENTRAL MONTANA

CITY           SKY/WX    TMP DP  RH WIND       PRES   REMARKS
HAVRE          CLEAR      9   3  77 W10       30.05S WCI  -5
LEWISTOWN      CLOUDY    15   4  61 E8        30.05F WCI   4
N BAR RANCH      N/A     23   5  46 VRB6G12   30.05F WCI  16
CHINOOK          N/A     -6  -9  84 NE3       30.07F
DENTON           N/A     17   8  67 SE16G25   30.00F WCI   1
FORT BENTON      N/A     25  10  54 MISG      30.07S
GEYSER           N/A     27  10  49 W25       30.01F WCI  12
GRASS RANGE      N/A     31   8  38 W10       30.00F WCI  22
JUDITH GAP       N/A     24   7  48 W14       30.04F WCI  12
ROY              N/A     31  12  45 MISG      30.01F
STANFORD         N/A     27  11  51 SW13      30.02F WCI  16
WINIFRED         N/A     31  10  42 SW12      30.02F WCI  22
$$

MTZ017>020-022>027-061-062-151300-
NORTHEAST MONTANA

CITY           SKY/WX    TMP DP  RH WIND       PRES   REMARKS
GLASGOW        CLOUDY    -3  -8  79 CALM      30.06F
JORDAN           N/A     -2  -7  79 W7        30.07F WCI -15
SIDNEY         CLOUDY     1  -4  79 S13       30.12F WCI -17
WOLF POINT     CLOUDY   -11 -17  75 S3        30.11F
PLENTYWOOD       N/A      1  -6  71 E7        30.03F WCI -11
POPLAR           N/A     -2  -8  78 NW3       30.11F
SCOBEY           N/A      4  -7  60 CALM      30.01F
$$

MTZ028>42-056>058-151300-
SOUTHCENTRAL AND SOUTHEAST MONTANA

CITY           SKY/WX    TMP DP  RH WIND       PRES   REMARKS
BAKER          CLOUDY    -3  -8  79 NW3       30.12F
BILLINGS       CLOUDY    17   4  56 SW20      30.11F WCI   1
LIVINGSTON     CLOUDY    18   4  54 NW18      30.15S WCI   2
MILES CITY     CLOUDY     0  -7  72 SE7       30.13F WCI -13
BIG TIMBER     CLEAR     25   7  46 W29G37    30.10F WCI   8
EKALAKA          N/A     21  -3  35 SE3       30.06F
FORSYTH          N/A      0  -6  78 CALM      30.12F
HARLOWTON      MOCLDY    28   9  45 W29G36    30.06F WCI  12
LAUREL           N/A     12  -1  56 SW16      30.08F WCI  -5
$$

REGIONAL REPORTS...DAKOTAS

CITY           SKY/WX    TMP DP  RH WIND       PRES   REMARKS
WILLISTON      CLOUDY    -2  -5  87 S3        30.10F
MINOT          CLOUDY    11   2  67 SW17      30.06F WCI  -6
DICKINSON      CLOUDY    11   2  67 W10       30.08F WCI  -3
BEACH            N/A     19   5  53 SW18      30.12F WCI   4
CROSBY           N/A      1  -2  85 SW20      30.05F WCI -20
TIOGA            N/A      5   0  78 W5        30.08S
WATFORD CITY     N/A      1  -2  85 SW7       30.10F WCI -11
BISMARCK       CLOUDY   -12 -18  74 NE3       30.19F
GRAND FORKS    CLOUDY    -1  -7  75 S10       30.16F WCI -17
FARGO          CLOUDY     6   0  76 S15       30.24F WCI -12
BUFFALO SD       N/A     20  10  65 SW3       30.05F
RAPID CITY     CLEAR     14   0  53 SW5       30.15S
$$

REGIONAL REPORTS...WYOMING/IDAHO/WASHINGTON

CITY           SKY/WX    TMP DP  RH WIND       PRES   REMARKS
GILLETTE       CLOUDY    23   9  55 SW8       30.13S WCI  14
SHERIDAN       CLOUDY     2  -6  69 S6        30.10F WCI  -9
BUFFALO WY     CLEAR     26  -5  25 SW10      30.10F WCI  16
YELLOWSTONE LA   N/A    -21 -25  81 CALM      30.20S
IDAHO FALLS    CLOUDY    -2  -5  87 N9        30.23F WCI -18
SALMON         CLOUDY   -18 -18 100 CALM      30.49S
BOISE          LGT SNOW  11   9  92 N7        30.41R FOG     WCI   0
SPOKANE        FOG       -1  -5  82 CALM      30.35F VSB 1/2
$$

REGIONAL REPORTS...ALBERTA

CITY           SKY/WX    TMP DP  RH WIND       PRES   REMARKS
EDMONTON       CLEAR     32  18  55 W9        29.81R WCI  24
CALGARY        MOCLDY    41  16  36 W18G25    29.88F
LETHBRIDGE     CLOUDY    30  18  59 SW8G22    29.93R WCI  23
MEDICINE HAT   CLEAR     18  10  73 SW10      29.94F WCI   6
WATERTON GATE    N/A     30   7  37 SW26G37     N/A  WCI  16
CARDSTON         N/A     37  12  35 S6          N/A
MILK RIVER       N/A     32  18  55 SW12        N/A  WCI  23
$$

REGIONAL REPORTS...SASKATCHEWAN

CITY           SKY/WX    TMP DP  RH WIND       PRES   REMARKS
SWIFT CURRENT  CLEAR     16  10  79 SW20      29.89F WCI  -1
REGINA         MOCLDY     5   1  85 SE7       29.95F WCI  -7
SASKATOON      MOCLDY    18  10  73 SW9       29.88F WCI   6
CYPRESS HILLS    N/A     25  10  54 W3          N/A
VAL MARIE        N/A     -9 -15  77 E2          N/A
ROCKGLEN         N/A     18   7  62 SW9         N/A  WCI   6
ASSINIBOIA       N/A     34  21  60 SW8         N/A  WCI  27
$$




USA.gov is the U.S. government's official web portal to all federal, state and local government web resources and services.